Weather History for Jamestown, NY

Change the Weather History Date:

Saturday, February 23, 2013

  Actual Average Record
Temperature  
Mean Temperature 28 °F -  
Max Temperature 32 °F 44 °F 59 °F (1975)
Min Temperature 24 °F 20 °F -8 °F (1987)
Degree Days  
Heating Degree Days 37    
Moisture  
Dew Point 25 °F    
Average Humidity 90    
Maximum Humidity 100    
Minimum Humidity 74    
Precipitation  
Precipitation 0.00 in - - ()
Sea Level Pressure  
Sea Level Pressure 29.88 in    
Wind  
Wind Speed 9 mph (SW)    
Max Wind Speed 14 mph    
Max Gust Speed 21 mph    
Visibility 6 miles    
Events      
Averages and records for this station are not official NWS values.
T = Trace of Precipitation, MM = Missing Value Source: NWS Daily Summary

Daily Weather History Graph

Daily Weather History Graph

Search for Another Location

Airport:

Trip Planner

Search our weather history database for the weather conditions in past years. The results will help you decide how hot, cold, wet, or windy it might be!

Date:

Astronomy

Feb. 23, 2013 Rise Set
Actual Time 7:01 AM EST 6:00 PM EST
Civil Twilight 6:32 AM EST 6:28 PM EST
Nautical Twilight 6:00 AM EST 7:00 PM EST
Astronomical Twilight 5:28 AM EST 7:33 PM EST
Moon 4:07 PM EST (2/23) 5:24 AM EST (2/23)
Length of Visible Light 11h 55m
Length of Day
10h 58m
Waxing Gibbous, 95% of the Moon is Illuminated
Feb 23
Waxing Gibbous
Feb 25
Full
Mar 4
Last Quarter
Mar 11
New
Mar 19
First Quarter

Hourly Weather History & Observations

Time (EST) Temp. Windchill Dew Point Humidity Pressure Visibility Wind Dir Wind Speed Gust Speed Precip Events Conditions
12:15 AM 28.4 °F 18.5 °F 26.6 °F 93% 29.96 in 5.0 mi South 11.5 mph 20.7 mph N/A   Overcast
12:35 AM 28.4 °F 19.1 °F 26.6 °F 93% 29.96 in 4.0 mi South 10.4 mph - N/A   Overcast
12:55 AM 28.4 °F 18.5 °F 26.6 °F 93% 29.95 in 3.0 mi South 11.5 mph 19.6 mph N/A   Overcast
1:15 AM 28.4 °F 19.1 °F 26.6 °F 93% 29.95 in 3.0 mi South 10.4 mph - N/A   Overcast
1:35 AM 28.4 °F 17.5 °F 26.6 °F 93% 29.95 in 3.0 mi South 13.8 mph 18.4 mph N/A   Overcast
2:15 AM 28.4 °F 18.0 °F 26.6 °F 93% 29.94 in 4.0 mi South 12.7 mph 20.7 mph N/A   Overcast
2:35 AM 28.4 °F 17.5 °F 26.6 °F 93% 29.93 in 5.0 mi South 13.8 mph 18.4 mph N/A   Overcast
2:55 AM 28.4 °F 19.1 °F 26.6 °F 93% 29.92 in 5.0 mi South 10.4 mph 18.4 mph N/A   Overcast
3:15 AM 28.4 °F 18.0 °F 26.6 °F 93% 29.92 in 5.0 mi South 12.7 mph 16.1 mph N/A   Overcast
3:35 AM 28.4 °F 18.0 °F 26.6 °F 93% 29.91 in 5.0 mi South 12.7 mph 16.1 mph N/A   Overcast
3:55 AM 28.4 °F 19.1 °F 26.6 °F 93% 29.92 in 4.0 mi South 10.4 mph - N/A   Overcast
4:15 AM 28.4 °F 21.2 °F 26.6 °F 93% 29.91 in 2.5 mi South 6.9 mph - N/A   Overcast
4:35 AM 28.4 °F 20.4 °F 26.6 °F 93% 29.91 in 2.0 mi South 8.1 mph - N/A   Overcast
4:55 AM 28.4 °F 18.5 °F 26.6 °F 93% 29.90 in 2.0 mi SSE 11.5 mph - N/A   Overcast
5:15 AM 28.4 °F 21.2 °F 26.6 °F 93% 29.90 in 2.5 mi SSE 6.9 mph - N/A   Overcast
5:35 AM 28.4 °F 20.4 °F 26.6 °F 93% 29.90 in 2.5 mi South 8.1 mph - N/A   Overcast
5:55 AM 28.4 °F 19.1 °F 26.6 °F 93% 29.91 in 2.5 mi South 10.4 mph - N/A   Overcast
6:15 AM 28.4 °F 21.2 °F 26.6 °F 93% 29.91 in 2.5 mi South 6.9 mph - N/A   Overcast
6:35 AM 28.4 °F 19.1 °F 26.6 °F 93% 29.92 in 2.0 mi South 10.4 mph - N/A   Overcast
7:15 AM 28.4 °F 19.7 °F 26.6 °F 93% 29.92 in 1.0 mi South 9.2 mph - N/A   Overcast
7:35 AM 28.4 °F 20.4 °F 26.6 °F 93% 29.92 in 1.0 mi South 8.1 mph - N/A   Overcast
7:55 AM 28.4 °F 20.4 °F 26.6 °F 93% 29.91 in 1.2 mi South 8.1 mph - N/A   Overcast
8:15 AM 28.4 °F 21.2 °F 26.6 °F 93% 29.92 in 1.8 mi South 6.9 mph - N/A   Overcast
8:35 AM 28.4 °F 22.2 °F 26.6 °F 93% 29.92 in 1.8 mi South 5.8 mph - N/A   Overcast
8:55 AM 28.4 °F 21.2 °F 26.6 °F 93% 29.90 in 2.0 mi South 6.9 mph - N/A   Overcast
9:15 AM 28.4 °F 22.2 °F 26.6 °F 93% 29.90 in 1.5 mi South 5.8 mph - N/A   Overcast
9:35 AM 28.4 °F 21.2 °F 28.4 °F 100% 29.90 in 2.0 mi South 6.9 mph - N/A   Overcast
9:55 AM 28.4 °F 21.2 °F 26.6 °F 93% 29.89 in 2.0 mi South 6.9 mph - N/A   Overcast
10:15 AM 28.4 °F 19.7 °F 28.4 °F 100% 29.89 in 1.8 mi South 9.2 mph - N/A   Overcast
10:35 AM 30.2 °F 22.6 °F 28.4 °F 93% 29.89 in 1.8 mi South 8.1 mph - N/A   Overcast
10:55 AM 30.2 °F 22.6 °F 28.4 °F 93% 29.89 in 2.0 mi South 8.1 mph - N/A   Overcast
11:15 AM 30.2 °F 21.9 °F 28.4 °F 93% 29.88 in 2.5 mi South 9.2 mph - N/A   Overcast
11:35 AM 30.2 °F 22.6 °F 30.2 °F 100% 29.88 in 3.0 mi South 8.1 mph - N/A   Overcast
11:55 AM 30.2 °F 22.6 °F 28.4 °F 93% 29.88 in 5.0 mi South 8.1 mph - N/A   Overcast
12:15 PM 32.0 °F 24.2 °F 30.2 °F 93% 29.87 in 6.0 mi South 9.2 mph - N/A   Overcast
12:35 PM 32.0 °F 25.6 °F 30.2 °F 93% 29.87 in 8.0 mi SSW 6.9 mph - N/A   Overcast
12:55 PM 32.0 °F 24.8 °F 30.2 °F 93% 29.85 in 9.0 mi South 8.1 mph - N/A   Overcast
1:15 PM 32.0 °F 24.8 °F 28.4 °F 87% 29.85 in 10.0 mi SSW 8.1 mph - N/A   Overcast
1:35 PM 32.0 °F 23.6 °F 28.4 °F 87% 29.85 in 10.0 mi WNW 10.4 mph - N/A   Overcast
1:55 PM 30.2 °F 21.3 °F 26.6 °F 86% 29.85 in 8.0 mi NW 10.4 mph - N/A   Overcast
2:15 PM 30.2 °F 24.3 °F 26.6 °F 86% 29.84 in 9.0 mi NW 5.8 mph - N/A   Overcast
2:35 PM 30.2 °F 25.4 °F 26.6 °F 86% 29.84 in 9.0 mi WNW 4.6 mph - N/A   Overcast
2:55 PM 30.2 °F 25.4 °F 26.6 °F 86% 29.84 in 8.0 mi NNW 4.6 mph - N/A   Overcast
3:15 PM 28.4 °F 21.2 °F 26.6 °F 93% 29.85 in 7.0 mi WNW 6.9 mph - N/A   Overcast
3:35 PM 28.4 °F 23.3 °F 26.6 °F 93% 29.85 in 5.0 mi NW 4.6 mph - N/A   Overcast
3:55 PM 28.4 °F 21.2 °F 26.6 °F 93% 29.85 in 4.0 mi WNW 6.9 mph - N/A   Overcast
4:15 PM 28.4 °F 21.2 °F 26.6 °F 93% 29.86 in 4.0 mi WNW 6.9 mph - N/A   Overcast
4:35 PM 28.4 °F 22.2 °F 26.6 °F 93% 29.85 in 4.0 mi WNW 5.8 mph - N/A   Overcast
4:55 PM 28.4 °F 22.2 °F 26.6 °F 93% 29.85 in 5.0 mi WNW 5.8 mph - N/A   Overcast
5:15 PM 28.4 °F 23.3 °F 26.6 °F 93% 29.84 in 5.0 mi NW 4.6 mph - N/A   Overcast
5:35 PM 28.4 °F 23.3 °F 26.6 °F 93% 29.84 in 5.0 mi NNW 4.6 mph - N/A   Overcast
5:55 PM 28.4 °F 22.2 °F 26.6 °F 93% 29.84 in 4.0 mi NW 5.8 mph - N/A   Overcast
6:15 PM 28.4 °F 21.2 °F 24.8 °F 86% 29.86 in 4.0 mi NW 6.9 mph - N/A   Overcast
6:35 PM 26.6 °F 17.5 °F 23.0 °F 86% 29.87 in 10.0 mi NW 9.2 mph - N/A   Overcast
6:55 PM 26.6 °F 17.5 °F 21.2 °F 80% 29.87 in 10.0 mi NW 9.2 mph - N/A   Overcast
7:15 PM 26.6 °F 19.1 °F 21.2 °F 80% 29.86 in 10.0 mi NW 6.9 mph - N/A   Overcast
7:35 PM 26.6 °F 21.2 °F 21.2 °F 80% 29.87 in 10.0 mi NW 4.6 mph - N/A   Overcast
7:55 PM 26.6 °F 19.1 °F 19.4 °F 74% 29.87 in 10.0 mi NW 6.9 mph - N/A   Overcast
8:15 PM 24.8 °F 17.9 °F 19.4 °F 80% 29.87 in 10.0 mi NW 5.8 mph - N/A   Overcast
8:35 PM 26.6 °F 21.2 °F 19.4 °F 74% 29.87 in 10.0 mi NNW 4.6 mph - N/A   Overcast
8:55 PM 24.8 °F 20.5 °F 19.4 °F 80% 29.86 in 10.0 mi NNW 3.5 mph - N/A   Overcast
9:15 PM 24.8 °F 17.9 °F 19.4 °F 80% 29.86 in 10.0 mi NW 5.8 mph - N/A   Overcast
9:35 PM 24.8 °F 19.1 °F 19.4 °F 80% 29.86 in 10.0 mi NW 4.6 mph - N/A   Overcast
9:55 PM 24.8 °F 19.1 °F 19.4 °F 80% 29.85 in 10.0 mi WNW 4.6 mph - N/A   Overcast
10:15 PM 24.8 °F 19.1 °F 19.4 °F 80% 29.85 in 10.0 mi NW 4.6 mph - N/A   Overcast
10:35 PM 24.8 °F - 19.4 °F 80% 29.85 in 10.0 mi Calm Calm - N/A   Overcast
10:55 PM 24.8 °F - 19.4 °F 80% 29.84 in 10.0 mi Calm Calm - N/A   Overcast
11:15 PM 24.8 °F - 19.4 °F 80% 29.84 in 10.0 mi Calm Calm - N/A   Overcast
11:55 PM 24.8 °F - 19.4 °F 80% 29.83 in 10.0 mi Calm Calm - N/A   Overcast